EHI
23 21 21 22 24 30 37 39 36 34 33 31 27 20 15 14 14 15 16 17 16 14 12 11 11 12 12 12 11 7 2 1 1 1 1 2 7 9 9 9 7 6 6
25 23 21 22 25 31 37 39 38 36 35 34 29 22 17 15 14 15 17 16 14 13 13 12 11 12 13 14 13 9 4 2 2 2 2 2 5 8 7 7 7 7 7
29 25 21 20 23 29 35 38 39 38 36 34 28 22 19 16 14 16 17 16 14 14 16 16 14 14 16 15 14 11 8 6 5 4 3 3 4 5 5 5 6 7 8
30 26 23 20 22 26 31 37 40 39 36 32 27 23 20 16 13 15 17 17 17 18 19 19 18 18 18 16 13 12 10 9 7 5 4 3 4 5 5 4 4 6 7
29 30 29 26 23 24 29 35 40 40 36 32 29 26 22 17 13 13 17 18 20 21 20 20 20 20 19 16 13 10 9 9 8 6 4 3 4 4 4 4 4 4 5
27 32 35 31 26 26 30 36 41 40 37 33 30 28 24 19 14 14 16 18 18 19 19 20 20 20 19 17 13 9 8 9 9 6 4 4 3 3 4 5 5 4 4
23 28 34 32 28 27 32 38 42 40 36 33 31 28 25 20 17 16 16 17 17 16 17 19 20 20 19 17 14 10 9 10 9 6 4 4 5 5 6 6 6 4 2
19 24 30 31 27 26 31 37 41 39 35 32 31 29 25 21 18 17 17 17 15 13 15 19 21 21 19 18 16 14 11 10 8 6 5 5 6 8 9 8 6 3 2
17 21 26 27 25 25 29 35 40 38 32 30 30 28 24 21 18 18 17 15 13 12 14 18 21 21 19 18 19 16 12 10 9 8 7 7 8 10 10 9 8 6 5
16 19 23 23 22 22 26 33 37 35 30 27 29 28 25 22 20 19 17 16 15 15 15 18 21 20 18 18 18 17 14 12 11 9 8 7 8 10 10 9 9 9 8
15 17 19 20 20 19 22 27 32 32 28 27 28 27 26 24 23 21 20 20 21 20 19 19 20 20 18 18 18 16 14 14 12 10 8 8 8 9 9 8 8 7 7
14 15 17 20 21 21 21 22 25 27 28 28 27 25 25 25 23 22 22 22 23 22 21 21 20 19 18 18 17 15 14 12 10 8 8 7 8 8 8 7 5 4 4
15 16 19 23 25 26 26 23 20 22 26 29 29 26 25 23 23 24 24 23 21 21 22 23 21 18 17 17 16 15 13 10 7 6 6 5 5 6 5 4 4 3 3
18 21 25 28 30 33 34 27 20 21 26 31 33 33 31 28 27 26 25 22 20 20 21 21 20 17 15 13 13 13 12 9 5 4 4 3 3 4 3 2 1 2 2
24 28 33 37 39 41 38 31 25 27 32 35 37 40 41 37 30 26 23 22 20 19 19 18 18 15 10 7 7 8 8 7 5 4 4 3 3 2 2 1 0 1 1
29 34 40 44 45 45 43 37 34 35 38 40 41 43 43 37 28 22 20 21 20 19 19 18 16 11 5 2 2 3 4 5 5 5 4 3 2 2 1 0 0 0 0
32 35 40 42 43 43 45 43 40 40 42 43 42 39 36 32 25 19 18 19 19 18 18 17 14 9 3 0 0 1 2 3 4 4 4 4 3 2 2 1 0 0 0
31 31 32 36 38 39 43 45 44 43 43 42 40 35 31 29 25 21 20 20 19 18 16 15 13 8 3 1 0 0 1 3 3 3 4 4 4 3 2 1 0 0 0
30 28 27 30 35 37 41 46 47 46 43 39 36 33 31 29 27 26 25 23 19 16 14 13 12 9 5 1 0 0 1 3 3 3 3 4 3 3 2 1 1 0 0
32 30 28 31 34 36 40 46 48 46 42 37 33 32 32 30 28 29 28 23 18 14 12 12 12 10 6 3 1 1 2 3 4 3 3 3 3 3 2 2 2 1 0
33 33 34 36 37 37 40 45 48 46 42 37 33 31 32 30 28 27 25 21 17 14 12 12 11 11 9 5 2 1 2 4 4 4 3 3 3 2 1 1 1 1 0
31 34 39 42 42 41 41 43 44 42 38 35 30 28 28 26 24 24 22 19 16 14 13 12 11 11 11 7 3 1 1 3 4 4 3 3 2 1 0 0 0 0 0
31 34 41 46 47 44 41 39 40 38 34 31 28 25 24 23 22 21 19 18 16 15 14 13 12 11 12 9 4 1 1 1 2 2 2 1 1 0 0 0 0 0 0
31 33 38 44 46 43 38 36 36 35 33 30 26 23 21 22 22 20 18 17 15 14 13 13 11 10 10 8 3 1 1 0 0 1 1 1 1 0 0 1 1 0 0
31 32 36 40 41 39 36 35 36 36 34 30 24 19 17 19 20 19 16 14 11 10 9 9 8 6 5 3 1 0 0 0 0 0 0 1 2 1 0 1 1 1 1
32 32 34 37 37 35 34 34 36 36 34 29 23 16 13 13 15 16 14 10 7 6 6 5 4 3 2 1 0 0 0 0 0 0 0 1 2 1 0 1 1 2 2
Wind_Speed
9 9 8 8 8 7 6 4 3 3 1 1 1 1 1 1 1 2 2 2 1 1 1 2 1 1 1 1 1 1 2 2 1 1 1 2 2 2 1 1 1 2 3
9 9 8 8 8 8 6 5 3 3 2 1 0 0 1 1 1 2 2 2 1 1 1 1 1 1 1 1 1 1 1 2 1 1 1 1 1 1 2 1 2 2 2
10 9 8 8 8 8 7 5 4 3 2 2 1 1 1 1 2 2 2 1 1 1 1 1 1 1 1 0 1 1 2 1 1 1 1 1 1 0 0 1 1 1 1
10 10 9 8 8 8 8 6 5 3 2 2 0 1 1 1 1 1 2 1 1 1 1 1 1 1 1 1 1 0 1 1 1 1 1 1 0 1 1 0 1 1 2
10 9 9 8 8 7 8 7 6 4 3 2 1 0 1 1 1 1 2 1 1 1 1 1 1 1 1 1 1 1 1 1 1 1 1 1 1 2 1 1 1 1 1
9 9 9 8 7 7 7 7 6 5 4 3 2 1 0 1 1 1 1 0 1 1 1 1 1 1 1 1 1 1 1 1 1 2 2 1 1 1 0 1 1 1 1
9 9 9 9 7 7 7 7 6 5 4 4 3 2 1 1 1 1 1 0 1 1 1 1 1 1 1 1 1 1 2 1 2 2 2 2 1 1 1 0 1 1 1
8 9 9 8 7 7 7 7 6 4 4 4 2 2 1 1 0 1 1 1 1 1 2 1 1 1 1 1 1 1 1 1 1 2 2 2 2 1 1 0 0 1 1
8 9 9 8 8 7 7 7 6 5 4 4 3 3 2 0 0 0 1 1 1 1 2 1 1 1 1 2 1 1 1 1 1 1 1 2 2 1 1 0 0 1 1
8 8 8 8 7 7 7 6 6 5 4 4 3 3 2 1 0 0 1 1 1 2 2 2 1 1 1 2 1 2 1 1 1 1 1 1 2 1 1 1 1 1 1
8 8 8 8 7 6 6 6 5 4 3 3 3 2 2 2 1 1 1 0 1 1 1 1 1 1 1 1 1 1 2 1 2 2 2 2 2 2 2 1 1 1 0
7 7 8 8 7 7 6 4 6 5 4 3 3 3 2 2 1 1 1 1 1 1 1 1 1 1 2 2 2 2 2 2 2 2 2 2 2 2 2 2 2 1 0
6 7 7 7 6 6 6 5 4 5 5 4 4 3 2 1 1 1 1 1 1 0 1 1 1 1 2 2 2 2 2 2 2 2 2 2 2 2 2 2 2 1 1
6 6 6 6 6 5 5 4 3 4 4 4 4 3 2 2 1 1 1 1 1 1 1 1 1 1 2 3 3 2 2 2 2 2 2 2 2 2 2 1 2 1 2
6 6 6 6 6 6 5 4 3 2 3 3 3 3 2 2 1 1 1 0 0 1 1 1 1 1 2 3 3 3 2 2 2 1 1 2 2 2 1 1 1 1 1
5 6 6 6 6 6 5 4 3 3 3 2 3 2 3 2 2 1 1 1 1 1 1 1 2 2 3 4 5 4 3 2 2 2 1 0 1 3 3 2 1 0 0
6 6 5 4 5 5 4 4 4 4 3 2 2 2 2 2 2 2 2 1 1 1 1 1 2 2 3 4 4 4 2 2 2 2 2 3 2 2 1 0 1 1 2
6 5 4 4 4 5 5 4 4 4 3 2 2 2 2 2 2 2 2 2 2 1 1 1 1 1 1 1 3 4 3 2 2 2 1 1 2 3 2 2 1 1 2
6 4 4 4 4 4 4 4 4 3 3 2 2 2 1 1 2 2 2 2 1 1 1 1 1 1 1 0 1 3 2 1 1 1 1 1 2 2 3 1 2 2 2
5 4 4 4 4 3 4 3 3 3 2 2 2 2 1 1 1 2 2 1 1 2 2 1 1 1 1 2 1 1 2 2 1 1 1 2 1 2 2 1 2 2 3
6 5 5 4 4 4 3 2 2 2 1 1 2 2 2 1 1 1 1 1 2 2 2 1 1 2 2 4 3 2 2 2 2 2 0 1 1 1 2 3 3 3 4
5 5 5 4 4 4 3 2 2 2 2 1 1 2 1 1 1 2 2 2 2 2 2 2 2 2 2 3 4 4 3 3 3 2 1 0 1 3 4 4 4 5 4
4 3 4 4 4 3 2 2 2 2 2 1 1 1 1 1 1 2 3 3 3 3 3 2 2 2 2 2 3 4 4 3 3 2 2 3 4 4 4 5 5 4 2
3 2 3 4 3 3 2 2 2 2 1 1 1 1 2 3 2 2 3 3 2 2 2 2 2 1 1 1 1 1 2 3 3 3 4 5 5 5 4 3 3 3 2
3 2 2 2 3 3 2 2 2 2 1 1 1 2 2 2 2 2 1 2 1 1 1 1 1 1 1 0 1 1 1 2 2 3 3 3 2 3 2 2 2 2 2
2 2 2 2 2 3 2 2 2 2 1 1 2 2 2 2 2 2 2 1 2 3 3 2 0 1 1 2 1 1 1 3 3 3 4 3 3 2 2 2 2 2 2
Wind_Direction
148 147 148 143 133 128 123 116 117 110 100 83 102 108 84 53 57 76 79 86 49 44 32 348 3 346 12 359 322 317 296 272 254 273 283 269 228 196 200 188 174 175 169
148 150 153 150 145 140 139 134 129 127 139 121 118 121 87 105 94 67 85 76 57 13 42 1 336 2 9 336 311 322 295 280 260 225 240 251 247 241 203 177 178 179 156
154 156 159 159 153 148 148 148 148 141 149 145 146 103 91 34 53 75 88 87 68 60 344 15 345 333 314 268 277 276 288 284 294 256 228 241 238 300 257 207 172 161 166
158 161 161 163 159 157 153 147 149 148 145 146 117 133 116 90 75 71 87 102 86 28 15 26 358 334 344 341 278 281 284 275 279 288 272 258 189 208 198 227 185 184 190
156 154 156 157 157 155 154 150 148 151 152 157 146 134 82 111 91 88 90 94 115 66 34 31 357 336 347 337 334 341 311 296 297 296 297 290 275 256 197 197 251 259 221
142 144 144 145 148 147 148 144 143 152 154 157 153 139 62 48 49 47 60 251 130 89 42 33 11 345 336 341 340 326 317 327 328 316 314 310 294 288 281 188 214 237 253
144 146 145 150 150 146 141 134 141 151 157 162 167 160 186 193 192 279 236 258 28 76 58 24 22 348 347 359 344 315 321 340 320 297 307 322 302 299 319 234 232 239 257
146 149 148 150 152 147 140 137 140 145 154 156 161 150 181 231 231 257 302 7 15 37 61 38 23 11 4 344 350 315 308 317 313 315 323 302 309 347 1 22 345 299 304
149 149 149 151 149 144 141 142 141 145 148 153 154 155 166 207 296 294 286 15 10 31 38 31 42 19 358 334 342 326 314 328 306 320 323 306 300 318 340 337 172 201 262
152 145 146 149 147 145 140 138 141 146 147 151 167 152 165 182 195 5 29 11 26 27 15 10 22 11 1 354 353 325 315 320 300 278 300 319 324 335 332 314 267 237 236
145 144 144 142 137 137 140 145 141 144 152 149 142 125 145 164 180 134 105 51 23 19 350 351 358 2 1 2 355 330 353 3 337 333 355 348 332 339 334 325 314 283 190
140 140 142 136 138 142 142 151 154 158 158 146 146 149 155 156 154 128 127 120 63 30 3 4 356 359 13 8 2 345 359 358 346 346 0 353 342 348 340 339 334 344 37
130 131 136 138 138 140 142 156 167 160 157 159 159 153 162 153 138 110 110 117 97 61 48 33 11 11 13 7 357 359 356 358 0 1 9 360 348 340 346 353 342 351 356
134 131 128 128 132 130 132 135 162 160 159 157 152 152 162 161 152 132 124 101 86 64 59 35 19 26 24 12 3 7 15 14 12 15 25 11 1 342 331 333 342 4 20
133 126 127 133 133 133 133 134 146 138 135 141 143 143 142 127 137 141 127 73 6 35 52 55 32 37 35 20 12 351 18 356 349 6 27 27 38 50 23 350 22 7 14
117 121 131 130 137 141 144 144 142 130 125 137 138 135 139 146 157 152 156 118 70 56 56 46 44 27 25 30 27 16 357 342 341 343 338 346 51 64 70 51 41 0 291
124 126 128 133 140 143 143 147 150 146 151 156 146 150 156 161 169 189 156 148 147 156 167 96 83 62 41 24 19 5 328 315 328 342 343 339 26 53 51 26 287 270 255
118 119 131 135 136 142 149 149 152 148 155 151 154 170 179 173 179 179 174 174 175 185 177 130 130 122 69 39 13 342 303 310 325 325 336 357 33 9 2 334 319 292 283
121 128 135 134 131 141 141 144 155 148 153 157 163 163 174 186 200 193 190 194 184 188 202 201 176 137 121 107 10 340 300 292 312 345 24 47 64 13 349 318 308 307 300
119 117 114 115 117 119 126 140 152 156 167 167 161 154 158 183 209 195 191 195 195 222 218 179 166 174 170 155 190 295 291 297 303 270 125 79 62 356 346 292 287 294 304
116 111 106 108 110 110 119 141 134 125 114 132 142 141 161 198 181 156 159 189 213 232 231 198 209 212 188 169 200 223 268 303 302 296 287 86 103 264 283 280 272 273 289
109 110 103 103 102 105 115 120 104 93 82 87 115 128 160 230 152 141 175 209 219 230 227 223 227 225 196 183 200 212 235 286 300 305 334 17 252 269 272 269 273 278 286
109 112 114 109 104 111 130 130 111 102 94 95 117 162 191 211 170 191 199 211 215 229 226 215 224 223 191 173 196 210 235 257 278 309 306 288 272 265 261 254 266 264 260
124 133 125 127 127 133 133 122 118 116 125 157 188 198 203 209 202 215 214 222 225 233 241 238 244 238 152 107 119 254 249 252 261 287 282 270 264 264 267 257 249 240 256
130 122 125 131 130 125 120 118 122 133 162 195 217 221 221 217 208 204 237 246 248 242 257 305 319 331 16 115 205 245 308 309 311 298 277 264 251 245 247 250 241 229 239
102 104 109 119 127 131 127 121 128 139 172 225 238 241 238 226 226 209 209 145 152 137 143 156 190 75 133 161 174 194 263 295 305 282 263 259 256 260 258 259 256 247 245